Orbital Elements at Epoch 2459200.5 (2020-Dec-17.0) TDB
Reference: JPL 32 (heliocentric ecliptic J2000)
Element | Value | Uncertainty (1-sigma) | Units |
e | .06313872628504254 | 3.4055e-08 | |
a | 2.744731643202531 | 1.0065e-08 | au |
q | 2.571432783256471 | 9.5257e-08 | au |
i | 6.467436763535679 | 3.8023e-06 | deg |
node | 71.56383782536014 | 2.7415e-05 | deg |
peri | 337.4014829683164 | 3.8606e-05 | deg |
M | 7.993665027514147 | 2.5929e-05 | deg |
tp | 2459163.619932674013 (2020-Nov-10.11993267) | 0.00011965 | TDB |
period | 1660.918263607044 4.55 | 9.1361e-06 2.501e-08 | d yr |
n | .2167475714417048 | 1.1922e-09 | deg/d |
Q | 2.918030503148591 | 1.0701e-08 | au |
|
| | Orbit Determination Parameters
Additional Information
|